Home > Weather > Schweinfurt > Past weeks

Flag for Germany Weather for the Past 2 Weeks in Schweinfurt, Bavaria, Germany

Now
51 °F

Cool.


Feels Like: N/A
Forecast: 43 / 64 °F
Wind: N/A

Location: Illesheim

Current Time: May 1, 2016 at 2:30:37 AM

Latest Report: May 1, 2016 at 1:58 AM


Visibility: N/A

Pressure: 29.93 "Hg

Humidity: 63%

Dew Point: 39 °F

Location of SchweinfurtLocation

Historic Weather in Schweinfurt — Graph

°F

Schweinfurt Temperature Yesterday

Maximum temperature yesterday: 63 °F (at 2:58 PM)
Minimum temperature yesterday: 28 °F (at 4:58 AM)
Average temperature yesterday: 47 °F

High & Low Weather Summary for the Past Weeks

 TemperatureHumidityPressure
High65 °F (Apr 21, 5:58 PM)100% (Apr 23, 11:58 PM)30.46 "Hg (Apr 23, 11:58 PM)
Low27 °F (Apr 29, 4:58 AM)33% (Apr 21, 3:58 PM)29.53 "Hg (Apr 26, 5:59 AM)
Average44 °F76%29.99 "Hg
* Reported Apr 16 12:58 AM — May 1 12:58 AM, Schweinfurt, Weather by CustomWeather, © 2016

Note: Actual official high and low records may vary slightly from our data, if they occured in-between our weather recording intervals... More about our weather records

Advertising

Schweinfurt Weather History for the Previous 24 Hours

Scroll right to see more
 ConditionsComfort  
Time TempWeatherWind HumidityBarometerVisibility
12:58 AM
Sun, May 1
52 °FMostly cloudy.5 mph62%29.93 "HgN/A
11:58 PM
Sat, Apr 30
52 °FPassing clouds.6 mph58%29.93 "HgN/A
10:58 PM46 °FPassing clouds.2 mph76%29.93 "HgN/A
9:58 PM50 °FPassing clouds.2 mph67%29.93 "HgN/A
8:58 PM54 °FPartly sunny.5 mph60%29.94 "HgN/A
7:58 PM58 °FSunny.8 mph44%29.94 "HgN/A
6:58 PM60 °FScattered clouds.9 mph49%29.95 "HgN/A
5:58 PM61 °FPartly sunny.9 mph47%29.96 "HgN/A
4:58 PM62 °FPartly sunny.8 mph47%29.97 "HgN/A
3:58 PM62 °FOvercast.9 mph46%29.98 "HgN/A
2:58 PM63 °FSunny.6 mph49%29.99 "HgN/A
1:58 PM61 °FSunny.5 mph48%30.00 "HgN/A
12:58 PM60 °FSunny.8 mph52%30.01 "HgN/A
11:58 AM59 °FSunny.5 mph51%30.03 "HgN/A
10:58 AM54 °FSunny.1 mph61%30.04 "HgN/A
9:58 AM49 °FScattered clouds.2 mph67%30.07 "HgN/A
8:58 AM42 °FScattered clouds.1 mph81%30.07 "HgN/A
7:58 AM37 °FPassing clouds.No wind84%30.06 "HgN/A
6:58 AM32 °FSunny.2 mph93%30.06 "HgN/A
6:00 AM30 °FIce fog.2 mph93%30.03 "Hg5 mi
5:58 AM30 °FIce fog.2 mph93%30.06 "Hg3 mi
4:58 AM28 °FIce fog.1 mph100%30.06 "Hg6 mi
3:58 AM30 °FClear.No wind93%30.06 "HgN/A
2:58 AM32 °FClear.No wind92%30.06 "HgN/A
Weather by CustomWeather, © 2016

See weather overviewHow to use our weather pages